Погода в Салдусе

Погода в Салдусе : погода сейчас, прогноз погоды и архив. Всё, что Вы хотите узнать о погоде в Салдусе!

Поиск расширенной информации на нашем сайте:

Другие новости

Новости СМИ2

Главная страница сайта

Новости сайта

03.07.2017

Напоминаем, что на нашем специализированном сайте Метеоцентр.Азия вы можете получить высокодетализированные автоматические прогнозы погоды по пунктам России, СНГ и мира в авиационном формате (включающие направление и скорость ветра, видимость, явления погоды, количество и форму облачности, нижнюю и верхнюю границу облачности).


Погода в Салдусе - сегодня

Время (UTC), дата Ветер
(°,м/с) 
Видим.   Явления Облачность Т
(°С)
Тd
(°С)
f(%) Тe
(°С)
Pmin
(гПа)
dP
(гПа)
Po
(мм)
O2
(г/м3)
Тmin Tmax R s Состояние
почвы
06 11.08.18 280 (З) 2-4  н/о    н/о 
+18.7 +13.6 72 +26  1020.4  0.5  755  282           
09 11.08.18 290 (З) 2-3  н/о    н/о 
+20.2 +9.4 50 +20  1020.3  755  282           
12 11.08.18 170 (Ю) 2-3  н/о    н/о 
+20.1 +9.9 52 +21  1019  -1.3  754  281           
15 11.08.18 180 (Ю) 3-5  н/о    н/о 
+18.3 +14.7 80 +27  1016.7  -2.4  753  281           
18 11.08.18 190 (Ю) 2-4  н/о    н/о 
+16.4 +13.1 81 +23  1015.7  -1  752  283           
21 11.08.18 180 (Ю) 2-4  н/о    н/о 
+14.4 +13.5 94 +21  1014.1  751  285           
00 12.08.18 180 (Ю) 3-5  н/о    н/о 
+14.1 +13.3 95 +20  1012  -2.1  749  284           
03 12.08.18 180 (Ю) 3-6  н/о    н/о 
+12.8 +11.7 93 +17  1009.3  747  285           
06 12.08.18 200 (Ю) 3-8  н/о    н/о 
+14.3 +12.4 88 +19  1007.8  -1.4  746  283           
09 12.08.18 220 (ЮЗ) 3-6  н/о    н/о 
+16.6 +14.3 86 +25  1008  0.3  746  280           
12 12.08.18 250 (З) 6-11  н/о    н/о 
+15.9 +10.6 71 +17  1009.3  747  282           
15 12.08.18 270 (З) 6-11  н/о    н/о 
+17.1 +10.4 65 +19  1009.6  0.3  747  281           
18 12.08.18 250 (З) 4-8  н/о    н/о 
+15.9 +10.3 69 +18  1009.8  0.2  747  283           
21 12.08.18 250 (З) 3-5  н/о    н/о 
+15.4 +10.9 75 +18  1009.7  -0.2  747  283           
00 13.08.18 250 (З) 3-6  н/о    н/о 
+13.7 +12.1 90 +18  1009.5  -0.3  747  284           
03 13.08.18 230 (ЮЗ) 2-3  н/о    н/о 
+12.5 +11.3 92 +16  1010.1  747  286           
06 13.08.18 250 (З) 3-5  н/о    н/о 
+16 +11.1 73 +19  1010.7  0.7  748  283           
09 13.08.18 270 (З) 2-5  н/о    н/о 
+18.8 +9.9 56 +21  1011.3  749  280           
12 13.08.18 300 (СЗ) 3-5  н/о    н/о 
+19 +9.3 53 +20  1011.5  0.2  749  280           
15 13.08.18 300 (СЗ) 3-5  н/о    н/о 
+20.9 +7.6 42 +21  1010.8  748  279           
18 13.08.18 330 (СЗ) 3-4  н/о    н/о 
+16.6 +9 61 +17  1011.3  0.3  749  283           
21 13.08.18 360 (С) 1-1  н/о    н/о 
+11 +9.7 92 +13  1012.1  0.5  749  288           
00 14.08.18 020 (С) 1-2  н/о    н/о 
+10.2 +9.4 95 +11  1012.2  0.1  749  289           
03 14.08.18 130 (ЮВ) 2-3  н/о    н/о 
+13.4 +11.8 90 +18  1012.1  749  285           
06 14.08.18 110 (В) 2-3  н/о    н/о 
+16.3 +14.4 89 +25  1011.4  749  282           
Время (UTC), дата Ветер
(°,м/с) 
Видим.   Явления Облачность Т
(°С)
Тd
(°С)
f(%) Тe
(°С)
Pmin
(гПа)
dP
(гПа)
Po
(мм)
O2
(г/м3)
Тmin Tmax R s Состояние
почвы

Для получения пояснительной информации подведите курсор к названию столбца.

ПОГОДА в Салдусе - архив

Всё, что Вы хотите узнать о погоде в Салдусе - удобно и подробно!

Выберите нужную дату (начиная с 1 января 2015* года) и нажмите кнопку "Найти".
Будут отображены архивные сводки погоды по пункту Салдус, начиная с указанной даты.


Отображать данные в формате CSV (для использования в таблицах Excel)


Внимание! Наш архив погоды предназначен исключительно для личного некоммерческого использования в познавательных целях. Если Вам необходимы официальные справки о состоянии погоды (для производственных, юридических, коммерческих и т.п. целей), обращайтесь в органы Росгидромета.

*Примечание: данная дата относится к архиву по метеостанциям СССР (Россия, СНГ, Балтия).
Архив по метеостанциям Зарубежной Европы и Азии (кроме Китая) хранится 10 дней, по другим регионам земного шара (Китай, Африка, Америка, Австралия, Океания) - 1 день.

Салдус - район местоположения метеостанции


Название, широта, долгота, высота метеостанции:
Салдус 56.7°ш. 22.5°д. 112 м над ур. моря [Латвия]

Дополнительная информация

В oтличие oт бoльшинства пoгoдных сайтoв мы публикуем пoдрoбную метеoинфoрмацию в детальнoм прoфессиoнальнoм фoрмате.

Характеристики температуры и влажнoсти вoздуха измеряются на высoте 2 м в тени вдали oт зданий и деревьев.
Скoрoсть ветра измеряется на высoте 10 м (на урoвне рoста челoвека скoрoсть ветра ниже в 1.5-2 раза). Если метеoстанция нахoдится в гoрoде или в лесу, тo скoрoсть ветра занижена на 2-4 м/с пo сравнению с oткрытым местoм. Скoрoсть ветра над акватoриями крупных рек и oзёр, а также на вершинах хoлмoв на 2-5 м/с выше, чем в oбычных услoвиях.
Атмoсфернoе давление в разных тoчках местнoсти мoжет значительнo oтличаться oт давления на метеoстанции, в зависимoсти oт услoвий рельефа (при пoдъёме на 10 м давление пoнижается примернo на 1 мм рт.ст.).